PRAETORIAN SDA_619

Last updated on Sat Jun 27 2026 00:03:47 GMT+0000 (Coordinated Universal Time)

1 65582U 25203T 26177.48597005 .00000257 00000+0 22090-3 0 9998 2 65582 81.3045 2.1798 0008591 160.4101 199.7387 13.83806569 40616
UTC large
Height (km)
Speed (km/s)
/
Latitude / Longitude
Inclination (degrees)
Orbital Period (minutes)
Azimuth
Elevation
Range (km)
Doppler Factor

Next 0 passes for location: London (51.5072 / 0.1276)

No passes found over London.
PRAETORIAN SDA_619